CSG-2

Last updated on Sat Jun 27 2026 00:02:53 GMT+0000 (Coordinated Universal Time)

1 51444U 22008A 26177.73907681 .00000723 00000+0 97368-4 0 9992 2 51444 97.8889 1.1984 0001556 86.7989 273.3402 14.82151634238005
UTC large
Height (km)
Speed (km/s)
/
Latitude / Longitude
Inclination (degrees)
Orbital Period (minutes)
Azimuth
Elevation
Range (km)
Doppler Factor

Next 0 passes for location: London (51.5072 / 0.1276)

No passes found over London.
CSG-2